Skip Page Navigation
NASA JPL Caltech
NASA Logo - Jet Propulsion Laboratory + View the NASA Portal
+ Center for Near-Earth Object Studies
JPL Home Earth Solar System Stars & Galaxies Technology
JPL Solar System Dynamics
BODIES ORBITS EPHEMERIDES TOOLS PHYSICAL DATA DISCOVERY FAQ SITE MAP
JPL Small-Body Database Browser
Search: [ help ]  
214759 (2006 TH95)
Classification: Main-belt Asteroid          SPK-ID: 2214759
Ephemeris | Orbit Diagram | Orbital Elements | Mission Design | Physical Parameters | Discovery Circumstances | Close-Approach Data ]

[ show orbit diagram ]
Orbital Elements at Epoch 2459000.5 (2020-May-31.0) TDB
Reference: JPL 11 (heliocentric ecliptic J2000)
 Element Value Uncertainty (1-sigma)   Units 
e .09468818542941666 7.5829e-08  
a 3.01865637538853 4.0709e-08 au
q 2.73282528076805 2.5195e-07 au
i 10.84136937776812 7.0984e-06 deg
node 31.23369669923061 3.3893e-05 deg
peri 356.4640914002034 5.7846e-05 deg
M 213.2418634522295 5.2357e-05 deg
tp 2459781.441734295415
(2022-Jul-20.94173430)
0.00029121 TDB
period 1915.662265545578
5.24
3.8751e-05
1.061e-07
d
yr
n .187924566075572 3.8014e-09 deg/d
Q 3.30448747000901 4.4563e-08 au
  Orbit Determination Parameters
   # obs. used (total)      242  
   data-arc span      6760 days (18.51 yr)  
   first obs. used      2001-10-21  
   last obs. used      2020-04-24  
   planetary ephem.      DE431  
   SB-pert. ephem.      SB431-N16  
   condition code      0  
   norm. resid. RMS      .61256  
   source      ORB  
   producer      Otto Matic  
   solution date      2020-May-21 09:10:29  

Additional Information
 Earth MOID = 1.73774 au 
 Jupiter MOID = 2.14442 au 
 T_jup = 3.213 
[ show covariance matrix ]

Ephemeris | Orbit Diagram | Orbital Elements | Mission Design | Physical Parameters | Discovery Circumstances | Close-Approach Data ]

Physical Parameter Table
Parameter Symbol Value Units Sigma Reference Notes
absolute magnitude H 15.6   n/a MPO433404  

214759 (2006 TH95)          Discovered 2006-Oct-13 by Lin, C.-S., Ye, Q.-z. at Lulin
Reference: 20090509/Numbers.arcLast Updated: 2009-05-11

[ show close-approach data ]
Ephemeris | Orbit Diagram | Orbital Elements | Mission Design | Physical Parameters | Discovery Circumstances | Close-Approach Data ]
ABOUT SSD CREDITS/AWARDS PRIVACY/COPYRIGHT GLOSSARY LINKS
FirstGov 2020-Jul-04 19:36 UT
(server date/time)  
NASA Home Page
Site Manager:   Ryan S. Park
Webmaster  Alan B. Chamberlin